TimeMDT,TemperatureF,Dew PointF,Humidity,Sea Level PressureIn,VisibilityMPH,Wind Direction,Wind SpeedMPH,Gust SpeedMPH,PrecipitationIn,Events,Conditions,WindDirDegrees,DateUTC
12:56 AM,33.1,27.0,78,29.92,10.0,South,4.6,-,N/A,,Clear,190,2013-04-26 06:56:00
1:56 AM,33.1,27.0,78,29.93,10.0,SSW,4.6,-,N/A,,Clear,200,2013-04-26 07:56:00
2:56 AM,35.1,28.0,76,29.93,10.0,SW,4.6,-,N/A,,Clear,220,2013-04-26 08:56:00
3:56 AM,36.0,28.0,73,29.95,10.0,WSW,3.5,-,N/A,,Clear,240,2013-04-26 09:56:00
4:56 AM,34.0,28.0,79,29.97,10.0,WNW,5.8,-,N/A,,Clear,290,2013-04-26 10:56:00
5:56 AM,34.0,27.0,75,30.00,10.0,West,4.6,-,N/A,,Clear,270,2013-04-26 11:56:00
6:56 AM,42.1,32.0,67,30.01,10.0,WSW,8.1,-,N/A,,Clear,250,2013-04-26 12:56:00
7:56 AM,52.0,32.0,47,30.02,10.0,WSW,10.4,-,N/A,,Clear,240,2013-04-26 13:56:00
8:56 AM,62.1,30.0,30,30.02,10.0,West,9.2,-,N/A,,Clear,260,2013-04-26 14:56:00
9:56 AM,64.9,28.9,26,30.03,10.0,NW,8.1,-,N/A,,Clear,310,2013-04-26 15:56:00
10:56 AM,66.9,28.0,23,30.04,10.0,Calm,Calm,-,N/A,,Clear,0,2013-04-26 16:56:00
11:56 AM,70.0,25.0,18,30.04,10.0,West,11.5,17.3,N/A,,Clear,280,2013-04-26 17:56:00
12:56 PM,70.0,23.0,17,30.03,10.0,West,8.1,-,N/A,,Clear,260,2013-04-26 18:56:00
1:56 PM,72.0,23.0,16,30.01,10.0,WSW,8.1,16.1,N/A,,Clear,240,2013-04-26 19:56:00
2:56 PM,73.0,25.0,17,30.00,10.0,WSW,6.9,20.7,N/A,,Clear,240,2013-04-26 20:56:00
3:56 PM,73.0,21.9,15,29.99,10.0,SSW,10.4,-,N/A,,Clear,210,2013-04-26 21:56:00
4:56 PM,73.9,26.1,17,29.98,10.0,WSW,12.7,18.4,N/A,,Clear,250,2013-04-26 22:56:00
5:56 PM,72.0,27.0,19,29.99,10.0,WSW,15.0,20.7,N/A,,Clear,250,2013-04-26 23:56:00
6:56 PM,68.0,28.9,23,29.98,10.0,WSW,8.1,-,N/A,,Clear,250,2013-04-27 00:56:00
7:56 PM,55.0,32.0,42,29.99,10.0,SW,9.2,-,N/A,,Clear,220,2013-04-27 01:56:00
8:56 PM,51.1,30.9,46,29.99,10.0,SSW,9.2,-,N/A,,Clear,210,2013-04-27 02:56:00
9:56 PM,46.9,30.9,54,29.99,10.0,SSW,9.2,-,N/A,,Clear,200,2013-04-27 03:56:00
10:56 PM,48.9,30.9,50,29.97,10.0,SSW,9.2,-,N/A,,Clear,200,2013-04-27 04:56:00
11:56 PM,48.0,30.9,52,29.95,10.0,South,9.2,-,N/A,,Clear,190,2013-04-27 05:56:00